Weather History for KMSS - November, 2012

Change the Weather History Date:

Monday, November 12, 2012

  Actual Average Record
Temperature  
Mean Temperature 53 °F 37 °F  
Max Temperature 75 °F 45 °F 75 °F (2012)
Min Temperature 30 °F 29 °F 14 °F (1987)
Degree Days  
Heating Degree Days 12 28  
Month to date heating degree days 340 314  
Since 1 July heating degree days 985 1195  
Cooling Degree Days 0 0  
Month to date cooling degree days 0  
Year to date cooling degree days 363  
Growing Degree Days 2 (Base 50)    
Moisture  
Dew Point 42 °F    
Average Humidity 69    
Maximum Humidity 100    
Minimum Humidity 38    
Precipitation  
Precipitation 0.09 in 0.10 in 0.55 in (1970)
Month to date precipitation 0.31 1.26  
Year to date precipitation 26.20 30.76  
Sea Level Pressure  
Sea Level Pressure 30.08 in    
Wind  
Wind Speed 12 mph (SSW)    
Max Wind Speed 31 mph    
Max Gust Speed 46 mph    
Visibility 8 miles    
Events Rain    
T = Trace of Precipitation, MM = Missing Value Source: NWS Daily Summary

Daily Weather History Graph

Daily Weather History Graph

Search for Another Location

Airport or City:

Trip Planner

Search our weather history database for the weather conditions in past years. The results will help you decide how hot, cold, wet, or windy it might be!

Date:

Astronomy

Nov. 12, 2012 Rise Set
Actual Time 6:53 AM EST 4:33 PM EST
Civil Twilight 6:21 AM EST 5:04 PM EST
Nautical Twilight 5:46 AM EST 5:40 PM EST
Astronomical Twilight 5:11 AM EST 6:14 PM EST
Moon 5:13 AM EST (11/12) 3:37 PM EST (11/12)
Length of Visible Light 10h 42m
Length of Day
9h 39m
Waning Crescent, 2% of the Moon is Illuminated
Nov 12
Waning Crescent
Nov 13
New
Nov 20
First Quarter
Nov 28
Full
Dec 6
Last Quarter

Hourly Weather History & Observations

Time (EST) Temp. Windchill Dew Point Humidity Pressure Visibility Wind Dir Wind Speed Gust Speed Precip Events Conditions
12:53 AM 37.0 °F - 36.0 °F 96% 30.22 in 6.0 mi Calm Calm - N/A   Clear
1:53 AM 35.1 °F - 33.1 °F 92% 30.22 in 7.0 mi Calm Calm - N/A   Clear
2:53 AM 35.1 °F 30.1 °F 34.0 °F 96% 30.22 in 5.0 mi NNE 5.8 mph - N/A   Clear
3:53 AM 34.0 °F 31.0 °F 33.1 °F 96% 30.21 in 6.0 mi NE 3.5 mph - N/A   Clear
4:53 AM 33.1 °F - 32.0 °F 96% 30.21 in 7.0 mi Calm Calm - N/A   Clear
5:53 AM 32.0 °F - 30.0 °F 92% 30.21 in 7.0 mi Calm Calm - N/A   Clear
6:53 AM 33.1 °F 28.7 °F 32.0 °F 96% 30.21 in 5.0 mi NNE 4.6 mph - N/A   Clear
7:53 AM 33.1 °F - 30.9 °F 92% 30.20 in 5.0 mi Calm Calm - N/A   Clear
8:53 AM 46.0 °F - 41.0 °F 83% 30.19 in 9.0 mi Calm Calm - N/A   Clear
9:53 AM 66.9 °F - 45.0 °F 45% 30.16 in 10.0 mi SSW 16.1 mph 24.2 mph N/A   Clear
10:53 AM 71.1 °F - 46.0 °F 41% 30.14 in 10.0 mi SSW 19.6 mph 26.5 mph N/A   Clear
11:53 AM 71.1 °F - 46.9 °F 42% 30.12 in 10.0 mi SSW 21.9 mph 28.8 mph N/A   Scattered Clouds
12:53 PM 73.9 °F - 46.9 °F 38% 30.09 in 10.0 mi South 20.7 mph 28.8 mph N/A   Partly Cloudy
1:53 PM 72.0 °F - 46.9 °F 41% 30.06 in 10.0 mi SSW 18.4 mph 31.1 mph N/A   Scattered Clouds
2:53 PM 71.1 °F - 48.0 °F 44% 30.04 in 10.0 mi South 15.0 mph 23.0 mph N/A   Partly Cloudy
3:53 PM 69.1 °F - 46.9 °F 45% 30.01 in 10.0 mi South 12.7 mph 25.3 mph N/A   Clear
4:53 PM 68.0 °F - 45.0 °F 43% 29.99 in 10.0 mi South 17.3 mph 27.6 mph N/A   Clear
5:53 PM 66.9 °F - 44.1 °F 44% 29.95 in 10.0 mi South 12.7 mph 21.9 mph N/A   Clear
6:53 PM 64.9 °F - 43.0 °F 45% 29.94 in 10.0 mi South 11.5 mph - N/A   Clear
7:53 PM 66.9 °F - 43.0 °F 42% 29.91 in 10.0 mi South 25.3 mph 34.5 mph N/A   Clear
8:53 PM 66.9 °F - 46.0 °F 47% 29.90 in 10.0 mi South 21.9 mph 34.5 mph N/A   Overcast
9:53 PM 66.0 °F - 48.0 °F 52% 29.90 in 10.0 mi SSW 20.7 mph 35.7 mph N/A   Overcast
10:53 PM 61.0 °F - 51.1 °F 70% 29.97 in 10.0 mi West 20.7 mph 28.8 mph 0.00 in Rain Light Rain
11:30 PM 53.6 °F - 50.0 °F 88% 30.02 in 8.0 mi WSW 12.7 mph 23.0 mph 0.01 in Rain Light Rain
11:41 PM 51.8 °F - 50.0 °F 94% 30.03 in 5.0 mi WNW 12.7 mph 23.0 mph 0.02 in Rain Light Rain
11:47 PM 50.0 °F - 48.2 °F 94% 30.04 in 2.5 mi West 18.4 mph 26.5 mph 0.05 in Rain Heavy Rain
11:53 PM 48.9 °F - 46.9 °F 93% 30.04 in 2.5 mi West 17.3 mph 26.5 mph 0.08 in Rain Heavy Rain